Location: Banff
(51.1667°N, 115.5667°W)
Time: 18:15:52
(UTC+00:00)

Vanguard 3 - Visible Passes

Search period start: 04 December 2020 00:00
Search period end: 14 December 2020 00:00
Orbit: 508 x 3262 km, 33.3° (Epoch: 03 December)

Date Brightness Start Highest point End Pass type
(mag) Time Alt. Az. Time Alt. Az. Time Alt. Az.
11 Dec 9.8 00:37:33 10° SSW 00:39:20 11° S 00:40:55 10° SSE visible
12 Dec 9.4 01:34:01 10° SSW 01:36:28 12° S 01:38:36 10° SSE visible
13 Dec 9.7 00:18:48 10° SSW 00:22:53 15° S 00:26:08 10° SSE visible
13 Dec 9.4 02:32:37 10° SSW 02:33:26 10° SSW 02:34:12 10° S visible
